Regional Weather Roundup
Issued by NWS

Home | Current Version | Previous Version | Text Only | Print | Product List | Glossary On
Versions: 1 2 3 4 5 6 7 8 9 10 11 12 13 14 15 16 17 18 19 20 21 22 23 24 25 26 27 28 29 30 31 32 33 34 35 36 37 38 39 40 41 42 43 44 45 46 47 48 49 50
000
ASUS43 KLSX 251610
RWRMO

WEATHER SUMMARY FOR MISSOURI
NATIONAL WEATHER SERVICE SPRINGFIELD MO
1100 AM CDT THU AUG 25 2016

NOTE: "FAIR" INDICATES FEW OR NO CLOUDS BELOW 12,000 FEET WITH NO
       SIGNIFICANT WEATHER AND/OR OBSTRUCTIONS TO VISIBILITY.
       CURRENT SKY AND/OR WEATHER CONDITIONS ARE NOT AVAILABLE FOR
       CHILLICOTHE AND FARMINGTON.

MOZ001>031-035>038-043-044-053-054-251700-
...NORTHERN AND WESTERN MISSOURI...

CITY           SKY/WX    TMP DP  RH WIND       PRES   REMARKS
KANSAS CTY INT CLOUDY    76  70  82 CALM      30.09R
KANSAS C DTWN  CLOUDY    78  71  79 CALM      30.07S
LEE`S SUMMIT   PTSUNNY   76  69  79 SW6       30.10S
ST JOSEPH      PTSUNNY   68  66  93 N15       30.09F
CHILLICOTHE      N/A     74  71  91 E5        30.08R
KIRKSVILLE     LGT RAIN  73  71  93 NW6       30.11R

$$
MOZ066>068-077>081-088>096-101>105-251700-
...SOUTHWEST MISSOURI...

CITY           SKY/WX    TMP DP  RH WIND       PRES   REMARKS
SPRINGFIELD    SUNNY     85  71  63 SW12G18   30.13R HX  90
JOPLIN         SUNNY     86  71  60 S13       30.10R HX  91
BRANSON        MOSUNNY   84  72  65 SW7       30.16R

$$
MOZ032>034-039>042-045>050-055>058-069>072-251700-
...CENTRAL MISSOURI...

CITY           SKY/WX    TMP DP  RH WIND       PRES   REMARKS
COLUMBIA       CLOUDY    80  72  76 W8        30.11R
JEFFERSON CITY CLOUDY    81  71  71 VRB3      30.09R
ROLLA          SUNNY     83  70  64 W8        30.12R
SEDALIA        PTSUNNY   80  72  76 W5        30.11R
WHITEMAN AFB   PTSUNNY   77  77 100 VRB2      30.09S
OSAGE BEACH    PTSUNNY   81  71  71 VRB5      30.12R

$$
MOZ051-052-059>065-251700-
...EAST CENTRAL MISSOURI...

CITY           SKY/WX    TMP DP  RH WIND       PRES   REMARKS
ST LOUIS INTL  MOSUNNY   89  72  56 W8        30.09R HX  96
SPIRIT OF STL  SUNNY     86  73  65 W10       30.08R HX  93
ST CHARLES     SUNNY     85  73  67 VRB6      30.08R HX  91

$$
MOZ072>076-082>087-097>100-106>115-251700-
...SOUTH CENTRAL AND SOUTHEAST MISSOURI...

CITY           SKY/WX    TMP DP  RH WIND       PRES   REMARKS
CAPE GIRARDEAU SUNNY     86  73  65 W8        30.11R HX  93
FARMINGTON     SUNNY     85  73  67 SW8       30.14R HX  91
POPLAR BLUFF   SUNNY     87  75  67 VRB6      30.11S HX  96
WEST PLAINS    MOSUNNY   85  73  67 W9        30.18R HX  91

$$




USA.gov is the U.S. government's official web portal to all federal, state and local government web resources and services.